Weather History for Demopolis Municipal Airport, AL

Change the Weather History Date:

Sunday, December 29, 2013

  Actual Average (KMEI) Record (KMEI)
Temperature  
Mean Temperature 47 °F 45 °F  
Max Temperature 57 °F 57 °F 79 °F (1973)
Min Temperature 37 °F 34 °F 9 °F (1894)
Degree Days  
Heating Degree Days 18 20  
Month to date heating degree days 518  
Since 1 July heating degree days 968  
Cooling Degree Days 0 0  
Month to date cooling degree days 0  
Year to date cooling degree days 2029  
Moisture  
Dew Point 44 °F    
Average Humidity 80    
Maximum Humidity 100    
Minimum Humidity 47    
Precipitation  
Precipitation 0.00 in 0.14 in 3.27 in (1893)
Month to date precipitation 4.78  
Year to date precipitation 55.88  
Sea Level Pressure  
Sea Level Pressure 30.04 in    
Wind  
Wind Speed 0 mph (North)    
Max Wind Speed 0 mph    
Max Gust Speed -    
Visibility 9 miles    
Events Rain    
T = Trace of Precipitation, MM = Missing Value Source: NWS Daily Summary

Daily Weather History Graph

Daily Weather History Graph

Search for Another Location

Airport:

Trip Planner

Search our weather history database for the weather conditions in past years. The results will help you decide how hot, cold, wet, or windy it might be!

Date:

Astronomy

Dec. 29, 2013 Rise Set
Actual Time 6:52 AM CST 4:55 PM CST
Civil Twilight 6:25 AM CST 5:22 PM CST
Nautical Twilight 5:54 AM CST 5:53 PM CST
Astronomical Twilight 5:25 AM CST 6:23 PM CST
Moon 3:40 AM CST (12/29) 2:29 PM CST (12/29)
Length of Visible Light 10h 56m
Length of Day
10h 02m
Waning Crescent, 11% of the Moon is Illuminated
Dec 29
Waning Crescent
Jan 1
New
Jan 7
First Quarter
Jan 15
Full
Jan 23
Last Quarter

Hourly Weather History & Observations

Time (CST) Temp. Dew Point Humidity Pressure Visibility Wind Dir Wind Speed Gust Speed Precip Events Conditions
12:15 AM 44.6 °F - N/A% 29.95 in 7.0 mi Calm Calm - N/A   Overcast
12:35 AM 44.6 °F - N/A% 29.95 in 4.0 mi Calm Calm - N/A   Light Drizzle
12:55 AM 44.6 °F - N/A% 29.97 in 7.0 mi Calm Calm - N/A Rain Rain
1:15 AM 44.6 °F - N/A% 29.96 in 5.0 mi Calm Calm - N/A Rain Rain
1:35 AM 44.6 °F - N/A% 29.96 in 7.0 mi Calm Calm - N/A Rain Light Rain
1:55 AM 44.6 °F - N/A% 29.96 in 7.0 mi Calm Calm - N/A Rain Light Rain
2:15 AM 44.6 °F - N/A% 29.96 in 7.0 mi Calm Calm - N/A Rain Light Rain
2:35 AM 44.6 °F - N/A% 29.97 in 10.0 mi Calm Calm - N/A   Light Drizzle
2:55 AM 44.6 °F - N/A% 29.96 in 10.0 mi Calm Calm - N/A Rain Rain
3:15 AM 44.6 °F - N/A% 29.96 in 7.0 mi Calm Calm - N/A Rain Rain
3:35 AM 44.6 °F - N/A% 29.95 in 10.0 mi Calm Calm - N/A   Overcast
3:55 AM 44.6 °F - N/A% 29.96 in 10.0 mi Calm Calm - N/A   Overcast
4:15 AM 44.6 °F - N/A% 29.96 in 10.0 mi Calm Calm - N/A Rain Light Rain
4:35 AM 44.6 °F - N/A% 29.96 in 10.0 mi Calm Calm - N/A   Light Drizzle
4:55 AM 44.6 °F - N/A% 29.96 in 10.0 mi Calm Calm - N/A   Overcast
5:15 AM 44.6 °F - N/A% 29.98 in 10.0 mi Calm Calm - N/A   Overcast
5:35 AM 44.6 °F - N/A% 29.98 in 10.0 mi Calm Calm - N/A   Overcast
5:55 AM 44.6 °F - N/A% 30.00 in 10.0 mi Calm Calm - N/A   Overcast
6:15 AM 44.6 °F - N/A% 30.00 in 10.0 mi Calm Calm - N/A   Overcast
6:35 AM 44.6 °F - N/A% 30.01 in 10.0 mi Calm Calm - N/A   Overcast
6:55 AM 44.6 °F - N/A% 30.02 in 10.0 mi Calm Calm - N/A   Overcast
7:15 AM 44.6 °F 44.6 °F 100% 30.04 in 10.0 mi Calm Calm - N/A   Overcast
7:35 AM 44.6 °F 44.6 °F 100% 30.05 in 10.0 mi Calm Calm - N/A   Overcast
7:55 AM 44.6 °F 44.6 °F 100% 30.06 in 10.0 mi Calm Calm - N/A   Overcast
8:15 AM 45.1 °F 45.1 °F 100% 30.06 in 10.0 mi Calm Calm - N/A   Overcast
8:35 AM 45.5 °F 45.5 °F 100% 30.07 in 10.0 mi Calm Calm - N/A   Overcast
8:55 AM 45.9 °F 45.9 °F 100% 30.08 in 10.0 mi Calm Calm - N/A   Overcast
9:15 AM 46.4 °F 46.4 °F 100% 30.07 in 10.0 mi Calm Calm - N/A   Overcast
9:35 AM 46.9 °F 46.9 °F 100% 30.09 in 10.0 mi Calm Calm - N/A   Overcast
9:55 AM 47.3 °F 47.3 °F 100% 30.09 in 10.0 mi Calm Calm - N/A   Overcast
10:15 AM 48.2 °F 48.2 °F 100% 30.09 in 10.0 mi Calm Calm - N/A   Overcast
10:35 AM 48.6 °F 48.6 °F 100% 30.09 in 10.0 mi Calm Calm - N/A   Overcast
10:55 AM 49.1 °F 49.1 °F 100% 30.09 in 10.0 mi Calm Calm - N/A   Overcast
11:15 AM 49.8 °F 49.8 °F 100% 30.08 in 10.0 mi Calm Calm - N/A   Overcast
11:35 AM 50.4 °F 44.4 °F 80% 30.07 in 10.0 mi Calm Calm - N/A   Mostly Cloudy
11:55 AM 51.3 °F 42.6 °F 72% 30.06 in 10.0 mi Calm Calm - N/A   Mostly Cloudy
12:15 PM 51.4 °F 41.2 °F 68% 30.05 in 10.0 mi Calm Calm - N/A   Scattered Clouds
12:35 PM 52.9 °F 41.5 °F 65% 30.04 in 10.0 mi Calm Calm - N/A   Clear
12:55 PM 53.1 °F 41.0 °F 64% 30.04 in 10.0 mi Calm Calm - N/A   Clear
1:15 PM 54.1 °F 41.5 °F 62% 30.04 in 10.0 mi Calm Calm - N/A   Clear
1:35 PM 55.8 °F 41.7 °F 59% 30.04 in 10.0 mi Calm Calm - N/A   Clear
1:55 PM 55.4 °F 41.2 °F 59% 30.03 in 10.0 mi Calm Calm - N/A   Clear
2:15 PM 56.3 °F 40.5 °F 55% 30.02 in 10.0 mi Calm Calm - N/A   Clear
2:35 PM 57.2 °F 39.0 °F 51% 30.02 in 10.0 mi Calm Calm - N/A   Clear
2:55 PM 57.6 °F 38.5 °F 49% 30.02 in 10.0 mi Calm Calm - N/A   Clear
3:15 PM 57.4 °F 37.4 °F 47% 30.02 in 10.0 mi Calm Calm - N/A   Clear
3:35 PM 57.6 °F 37.2 °F 47% 30.02 in 10.0 mi Calm Calm - N/A   Clear
3:55 PM 57.2 °F 38.1 °F 49% 30.03 in 10.0 mi Calm Calm - N/A   Clear
4:15 PM 57.0 °F 37.4 °F 48% 30.03 in 10.0 mi Calm Calm - N/A   Clear
4:35 PM 51.4 °F 43.5 °F 74% 30.04 in 10.0 mi Calm Calm - N/A   Clear
4:55 PM 48.0 °F 44.6 °F 88% 30.04 in 10.0 mi Calm Calm - N/A   Clear
5:15 PM 47.3 °F 47.3 °F 100% 30.05 in 10.0 mi Calm Calm - N/A   Clear
5:35 PM 45.5 °F 45.5 °F 100% 30.05 in 10.0 mi Calm Calm - N/A   Clear
5:55 PM 45.3 °F 45.3 °F 100% 30.06 in 10.0 mi Calm Calm - N/A   Clear
6:15 PM 45.0 °F - N/A% 30.07 in 10.0 mi Calm Calm - N/A   Clear
6:35 PM 44.6 °F - N/A% 30.08 in 10.0 mi Calm Calm - N/A   Clear
6:55 PM 44.2 °F - N/A% 30.09 in 10.0 mi Calm Calm - N/A   Clear
7:15 PM 43.7 °F - N/A% 30.09 in 10.0 mi Calm Calm - N/A   Clear
7:35 PM 43.9 °F - N/A% 30.11 in 10.0 mi Calm Calm - N/A   Clear
7:55 PM 43.9 °F - N/A% 30.11 in 10.0 mi Calm Calm - N/A   Clear
8:15 PM 43.5 °F - N/A% 30.11 in 10.0 mi Calm Calm - N/A   Clear
8:35 PM 43.0 °F - N/A% 30.11 in 10.0 mi Calm Calm - N/A   Clear
8:55 PM 42.1 °F - N/A% 30.12 in 10.0 mi Calm Calm - N/A   Clear
9:15 PM 41.2 °F - N/A% 30.11 in 4.0 mi Calm Calm - N/A   Haze
9:35 PM 40.6 °F - N/A% 30.11 in 7.0 mi Calm Calm - N/A   Clear
9:55 PM 40.1 °F - N/A% 30.12 in 5.0 mi Calm Calm - N/A   Haze
10:15 PM 38.5 °F - N/A% 30.12 in 7.0 mi Calm Calm - N/A   Clear
10:35 PM 39.2 °F - N/A% 30.13 in 7.0 mi Calm Calm - N/A   Clear
10:55 PM 38.7 °F - N/A% 30.13 in 7.0 mi Calm Calm - N/A   Clear
11:15 PM 38.5 °F - N/A% 30.12 in 7.0 mi Calm Calm - N/A   Clear
11:35 PM 37.6 °F - N/A% 30.12 in 10.0 mi Calm Calm - N/A   Clear
11:55 PM 37.0 °F - N/A% 30.13 in 10.0 mi Calm Calm - N/A   Clear